Location: Unspecified
(0.0000°N, 0.0000°E)
Time: 16:31:29
(UTC+01:00)

ATLAS 2AS CENTAUR R/B - Visible Passes

Search period start: 16 January 2018 00:00
Search period end: 26 January 2018 00:00
Orbit: 909 x 1303 km, 63.7° (Epoch: 10 January)

Date Brightness Start Highest point End Pass type
(mag) Time Alt. Az. Time Alt. Az. Time Alt. Az.
16 Jan 3.3 20:07:06 10° N 20:13:14 31° ENE 20:18:56 10° SE visible
16 Jan 4.4 21:58:09 10° WNW 22:03:49 27° WSW 22:09:07 10° SSW visible
17 Jan 3.3 21:12:21 10° NW 21:19:10 52° WSW 21:25:25 10° S visible
18 Jan 2.6 20:27:20 10° NNW 20:34:29 84° ENE 20:40:58 10° SSE visible
19 Jan 3.0 19:42:57 10° N 19:49:43 44° ENE 19:55:53 10° SE visible
19 Jan 5.1 21:35:48 10° WNW 21:40:11 18° WSW 21:44:23 10° SSW visible
20 Jan 4.2 20:49:16 10° NW 20:55:32 35° WSW 21:01:19 10° S visible
21 Jan 5.8 06:36:49 10° SSE 06:41:03 17° ESE 06:45:28 10° ENE visible
21 Jan 3.1 20:03:50 10° NNW 20:10:52 68° WSW 20:17:17 10° SSE visible
22 Jan 5.7 21:14:45 10° W 21:16:35 11° WSW 21:18:23 10° SW visible
23 Jan 5.0 20:26:33 10° WNW 20:31:54 24° WSW 20:36:55 10° SSW visible
24 Jan 5.2 06:11:56 10° SSE 06:17:26 25° ESE 06:23:17 10° ENE visible
24 Jan 3.9 19:40:34 10° NW 19:47:14 46° WSW 19:53:22 10° S visible
25 Jan 5.9 05:30:05 10° SE 05:32:44 12° ESE 05:35:26 10° E visible
